Regional Weather Roundup
Issued by NWS Memphis, TN

Home | Current Version | Previous Version | Text Only | Print | Product List | Glossary On
Versions: 1 2 3 4 5 6 7 8 9 10 11 12 13 14 15 16 17 18 19 20 21 22 23 24 25 26 27 28 29 30 31 32 33 34 35 36 37 38 39 40 41 42 43 44 45 46 47 48 49 50
000
ASUS44 KMEG 290610
RWRMEG
MEMPHIS CWA HOURLY WEATHER ROUNDUP
NATIONAL WEATHER SERVICE MEMPHIS TN
100 AM CDT MON MAY 29 2017

...WEST TENNESSEE...

CITY           SKY/WX    TMP DP  RH WIND       PRES   REMARKS
MEMPHIS INTL   LGT RAIN  73  70  90 S5        29.95F
6HR MIN TEMP:  72; 6HR MAX TEMP:  78; 6HR PCP: TRACE;

NWS MEMPHIS      N/A     71 N/A N/A MISG        N/A
JACKSON        CLOUDY    68  67  96 SW6       29.96R
6HR MIN TEMP:  67; 6HR MAX TEMP:  76;

COVINGTON      CLEAR     70  68  94 CALM      29.95S
SOMERVILLE     MOCLDY    72  68  88 CALM      29.95S
BOLIVAR        CLOUDY    68  68 100 CALM      29.96S
LEXINGTON      PTCLDY    64  64 100 MISG      29.95S
SELMER         CLOUDY    68  66  94 SW5       29.96S
SAVANNAH       CLOUDY    66  66 100 CALM      29.96R
DYERSBURG        N/A    N/A N/A N/A MISG        N/A
UNION CITY     CLEAR     66  64  94 CALM      29.93R
PARIS          CLEAR     64  64 100 SW3       29.93R
HUNTINGDON     CLEAR     64  64 100 CALM      29.94S


...EASTERN ARKANSAS...

CITY           SKY/WX    TMP DP  RH WIND       PRES   REMARKS
JONESBORO      CLOUDY    64  62  93 CALM      29.95S
6HR MIN TEMP:  64; 6HR MAX TEMP:  80; 6HR PCP: TRACE;

WEST MEMPHIS   CLOUDY    73  71  93 CALM      29.94S
6HR MIN TEMP:  71; 6HR MAX TEMP:  78;

BATESVILLE     CLOUDY    64  61  88 CALM      29.99R
6HR MIN TEMP:  64; 6HR MAX TEMP:  79;

NEWPORT        CLOUDY    69  64  84 W5        29.97
6HR MIN TEMP:  69; 6HR MAX TEMP:  80;

WALNUT RIDGE   CLOUDY    64  59  82 S6        29.96R
6HR MIN TEMP:  64; 6HR MAX TEMP:  81;

BLYTHEVILLE    MOCLDY    69  67  93 CALM      29.95R
6HR MIN TEMP:  68; 6HR MAX TEMP:  77;

SEARCY         CLOUDY    71  63  75 NW6       29.99R
6HR MIN TEMP:  67; 6HR MAX TEMP:  79;

STUTTGART      CLOUDY    73  63  68 CALM      29.97R
6HR MIN TEMP:  73; 6HR MAX TEMP:  79;

PINE BLUFF     HVY RAIN  74  71  91 SW3       29.97R
6HR MIN TEMP:  74; 6HR MAX TEMP:  78;

MONTICELLO     CLOUDY    72  69  90 S3        29.97R
6HR MIN TEMP:  71; 6HR MAX TEMP:  79; 6HR PCP:  0.02;



...NORTH MISSISSIPPI...

CITY           SKY/WX    TMP DP  RH WIND       PRES   REMARKS
TUPELO         CLOUDY    73  67  81 SW5       29.97S
6HR MIN TEMP:  71; 6HR MAX TEMP:  79;

OXFORD         CLOUDY    68  68 100 CALM      29.99S
BATESVILLE     CLOUDY    72  69  91 CALM      29.97S
6HR MIN TEMP:  71; 6HR MAX TEMP:  77; 6HR PCP:  0.34;

TUNICA         CLOUDY    72  70  94 CALM      29.96S
CLARKSDALE       N/A     73  73 100 MISG      29.95F
CORINTH        CLOUDY    72  66  83 SW5       29.97R
GREENWOOD      LGT RAIN  71  67  87 NW8G21    29.94F
6HR MIN TEMP:  71; 6HR MAX TEMP:  78; 6HR PCP:  0.01;

COLUMBUS       CLOUDY    82  68  61 W17       29.93S
STARKVILLE     DRIZZLE   70  66  88 CALM      29.98R
GOLDEN TRIANGL CLOUDY    72  63  73 S6        29.93S
6HR MIN TEMP:  70; 6HR MAX TEMP:  81;



...SOUTHEAST MISSOURI...

CITY           SKY/WX    TMP DP  RH WIND       PRES   REMARKS
KENNETT        MOCLDY    66  66 100 MISG        N/A
MALDEN         CLOUDY    68  61  77 CALM      29.95R
WEST PLAINS    CLOUDY    60  55  83 SW3       29.98S
6HR MIN TEMP:  58; 6HR MAX TEMP:  75;

POPLAR BLUFF   CLOUDY    64  62  93 CALM      29.93S
6HR MIN TEMP:  64; 6HR MAX TEMP:  78;

CAPE GIRARDEAU CLOUDY    61  58  90 CALM      29.92R
6HR MIN TEMP:  61; 6HR MAX TEMP:  77;



...NORTHWEST ALABAMA...

CITY           SKY/WX    TMP DP  RH WIND       PRES   REMARKS
MUSCLE SHOALS  MOCLDY    69  65  86 CALM      29.97R
6HR MIN TEMP:  68; 6HR MAX TEMP:  80;



...MIDDLE TENNESSEE...

CITY           SKY/WX    TMP DP  RH WIND       PRES   REMARKS
NASHVILLE      CLOUDY    69  64  84 W5        29.94R
6HR MIN TEMP:  69; 6HR MAX TEMP:  77;

CLARKSVILLE    CLOUDY    65  62  90 CALM      29.93R
6HR MIN TEMP:  64; 6HR MAX TEMP:  74;

COLUMBIA       CLEAR     66  66 100 CALM      29.94R FOG


...WESTERN KENTUCKY...

CITY           SKY/WX    TMP DP  RH WIND       PRES   REMARKS
PADUCAH        CLOUDY    65  63  93 SW5       29.91R FOG
6HR MIN TEMP:  64; 6HR MAX TEMP:  71;

FORT CAMPBELL  CLOUDY    65  65  99 SW5       29.93R
6HR MIN TEMP:  65; 6HR MAX TEMP:  74;



...CENTRAL ARKANSAS...

CITY           SKY/WX    TMP DP  RH WIND       PRES   REMARKS
LITTLE ROCK    CLOUDY    70  66  87 NW6       29.98R
6HR MIN TEMP:  70; 6HR MAX TEMP:  78;



SKY/WX REPORTED AS FAIR MEANS FEW OR NO CLOUDS BELOW
12 THOUSAND FEET.




USA.gov is the U.S. government's official web portal to all federal, state and local government web resources and services.